Weather in Khabarovsk

Russia / Khabarovsk Krai     48°28′48″N   135°04′18″E
temp.,
°C
wind,
m/s
gust,
m/s
humid.,
%
clouds,
%
prec.,
mm/h
press.,
hPa
HPBL,
m
22 june, tue
tue2201:00+13w117480 0.0 100911
04:00+13sw227495 0.0 101015
07:00+15sw23745 0.0 101097
10:00+22wsw34595 0.0 1010549
13:00+25wsw4550100 0.0 1009994
16:00+26wsw554732 0.0 10081183
19:00+24wsw36660 0.0 1008248
22:00+18sw2275100 0.0 100911
23 june, wed
wed2301:00+17sw467124 0.0 100875
04:00+15sw477077 0.0 1009101
07:00+17sw3875100 0.0 1009191
10:00+22sw586188 0.0 1009489
13:00+26wsw67515 0.0 10081015
16:00+27wsw674998 0.0 10061322
19:00+24wnw4773100 0.1 1006302
22:00+18wsw118879 0.4 100711
24 june, thu
thu2401:00+18wsw338919 0.6 100744
04:00+16wsw239217 1.0 100745
07:00+18ssw12875 0.0 1007131
10:00+23wsw23705 0.0 1007749
13:00+26wsw455912 0.0 10061387
16:00+27wsw565349 0.1 10041841
19:00+26wsw236531 0.0 1003536
22:00+19sw238214 0.1 100425
25 june, fri
fri2501:00+18sw359118 0.8 100575
04:00+16ssw359548 0.8 100486
07:00+18ssw369190 0.0 1005217
10:00+22sw687211 0.0 1005799
13:00+26sw686195 0.1 10041519
16:00+25sw566887 0.3 10041098
19:00+25ssw47725 0.1 1002729
22:00+19s3391100 4.4 100333
26 june, sat
sat2601:00+19s3395100 12.3 100561
04:00+18e2397100 13.9 100681
07:00+16ne4798100 0.2 1008230
10:00+15ne4595100 1.1 1010246
13:00+16ne4592100 0.4 1010329
16:00+22ene457316 0.4 1010718
19:00+20ne687958 0.0 1010595
22:00+15ene379360 0.1 1012161